Find Starlink 38299

NORAD ID: 100316 Int'l Des: 2026-184 Owner: SPXS Country: US Constellation: starlink operational

Aktuelle Ansicht

3D-Globus wird geladen...

About Starlink 38299

Starlink 38299 (NORAD 100316) is a starlink constellation satellite launched Aug 12, 2026 by SPXS of US. with a mass of 575.00 kg.

Nächste Überflüge

Passes for default location (London). Set your location on the main map for personalized predictions.

Höhenverlauf

Loading altitude history...

Zweizeiliger Elementsatz

1 A0316U 26184R 26262.92853326 .00010464 00000-0 32597-3 0 9991
2 A0316 97.2835 128.0686 0001833 99.2430 260.9020 15.33447201 7274
Epoch: 19. Sept. 2026 • Age: 15 hours

Aktueller Status

Höhe 480.9 km
Apogäum / Perigäum N/A
Geschwindigkeit 7.62 km/s
Subsatellitenpunkt -37.82°S, 71.81°W
Startdatum 12. Aug. 2026
Alter 0.1 years
Typ internet

Technische Details

Klassifizierung Payload
Masse 575.00 kg
Trockenmasse 530.00 kg
Länge 0.30 m
Spannweite 29.00 m
Form ? Box + pan
Hersteller SPXS
Bus-Typ Starlink V2MO
Phasenstatus In Orbit
Besitzer/Staat SPXS/US

Most Searched